This is the latest recevied weather packets stored in our database for station/object WB6ANP. If no packets are shown the sender has not sent any weather packets the latest 1 day(s).
| Time | Temp. | Humidity | Pressure | Rain* | Wind** | Luminosity | Snow |
|---|---|---|---|---|---|---|---|
| 1778054489 | 13.89° C | 81% | 1010 hPa | 0 mm | 1.79 m/s, 1° | 0 W/m² | - |
| 1778054187 | 13.89° C | 81% | 1010.3 hPa | 0 mm | 2.68 m/s, 37° | 0 W/m² | - |
| 1778053883 | 13.89° C | 81% | 1010.2 hPa | 0 mm | 0.89 m/s, 102° | 0 W/m² | - |
| 1778053581 | 13.89° C | 81% | 1010.4 hPa | 0 mm | 1.34 m/s, 24° | 0 W/m² | - |
| 1778053278 | 13.89° C | 82% | 1010.2 hPa | 0 mm | 0.89 m/s, 75° | 0 W/m² | - |
| 1778052976 | 13.89° C | 82% | 1010.3 hPa | 0 mm | 0.89 m/s, 100° | 0 W/m² | - |
| 1778052673 | 13.89° C | 82% | 1010.2 hPa | 0 mm | 1.34 m/s, 89° | 0 W/m² | - |
| 1778052369 | 13.89° C | 83% | 1010.6 hPa | 0 mm | 1.34 m/s, 116° | 0 W/m² | - |
| 1778052068 | 13.89° C | 83% | 1010.5 hPa | 0 mm | 1.79 m/s, 44° | 0 W/m² | - |
| 1778051765 | 13.89° C | 83% | 1010.1 hPa | 0 mm | 2.24 m/s, 44° | 0 W/m² | - |
| 1778051462 | 13.89° C | 83% | 1010.3 hPa | 0 mm | 0.89 m/s, 22° | 0 W/m² | - |
| 1778051159 | 13.89° C | 83% | 1010.1 hPa | 0 mm | 1.79 m/s, 41° | 0 W/m² | - |
| 1778050856 | 13.89° C | 83% | 1010.1 hPa | 0 mm | 0.89 m/s, 74° | 0 W/m² | - |
| 1778050554 | 13.89° C | 82% | 1009.8 hPa | 0 mm | 1.34 m/s, 68° | 0 W/m² | - |
| 1778050251 | 13.89° C | 82% | 1009.6 hPa | 0 mm | 1.34 m/s, 98° | 0 W/m² | - |
| 1778049948 | 14.44° C | 82% | 1009.4 hPa | 0 mm | 4.02 m/s, 96° | 0 W/m² | - |
| 1778049643 | 14.44° C | 82% | 1009.6 hPa | 0 mm | 1.79 m/s, 111° | 0 W/m² | - |
| 1778049342 | 14.44° C | 81% | 1009.4 hPa | 0 mm | 2.24 m/s, 82° | 0 W/m² | - |
| 1778049038 | 14.44° C | 81% | 1009.3 hPa | 0 mm | 1.34 m/s, 108° | 0 W/m² | - |
| 1778048737 | 14.44° C | 81% | 1009.3 hPa | 0 mm | 1.79 m/s, 69° | 0 W/m² | - |
| 1778048434 | 14.44° C | 80% | 1009.4 hPa | 0 mm | 3.13 m/s, 76° | 0 W/m² | - |
| 1778048129 | 14.44° C | 80% | 1009.3 hPa | 0 mm | 4.02 m/s, 85° | 0 W/m² | - |
| 1778047827 | 15° C | 80% | 1009.7 hPa | 0 mm | 4.92 m/s, 68° | 0 W/m² | - |
| 1778047525 | 15° C | 80% | 1009.8 hPa | 0 mm | 1.79 m/s, 74° | 0 W/m² | - |
| 1778047222 | 15° C | 80% | 1009.8 hPa | 0 mm | 1.79 m/s, 97° | 0 W/m² | - |
* Rain latest hour (hover to see other rain measurements)
** Current wind speed in m/s (hover to see current wind gust speed)